Lexington Weather

Lexington, Massachusetts, USA

49°F
12/8/2022 2:40pm 
  • Lexington Conditions: Clear
  • Temperature: 48.7°F / 9.3°CColder 1.3°F than last hour.
  • Dew Point: 35.4°F 
  • Relative Humidity: 60%Increased 3.0% since last hour.
  • Wind: Wind from N N 9 mph, 10-min avg: 4 mph, gust: 9 mph
  • Barometer: 30.07 in Steady
  • Visibility: 10 miles
  • Rain Today: 0.00 in
  •   

Warning: Undefined variable $rc in /homepages/6/d276339138/htdocs/weather/20190804/ssi/nwsProduct.php on line 323

Warning: Undefined variable $rc in /homepages/6/d276339138/htdocs/weather/20190804/ssi/nwsProduct.php on line 325

Warning: Undefined variable $rc in /homepages/6/d276339138/htdocs/weather/20190804/ssi/nwsProduct.php on line 323

Warning: Undefined variable $rc in /homepages/6/d276339138/htdocs/weather/20190804/ssi/nwsProduct.php on line 325

Warning: Undefined variable $rc in /homepages/6/d276339138/htdocs/weather/20190804/ssi/nwsProduct.php on line 323

Warning: Undefined variable $rc in /homepages/6/d276339138/htdocs/weather/20190804/ssi/nwsProduct.php on line 325

Warning: Undefined variable $rc in /homepages/6/d276339138/htdocs/weather/20190804/ssi/nwsProduct.php on line 323

Warning: Undefined variable $rc in /homepages/6/d276339138/htdocs/weather/20190804/ssi/nwsProduct.php on line 325

Warning: Undefined variable $rc in /homepages/6/d276339138/htdocs/weather/20190804/ssi/nwsProduct.php on line 323

Warning: Undefined variable $rc in /homepages/6/d276339138/htdocs/weather/20190804/ssi/nwsProduct.php on line 325

Warning: Undefined variable $rc in /homepages/6/d276339138/htdocs/weather/20190804/ssi/nwsProduct.php on line 323

Warning: Undefined variable $rc in /homepages/6/d276339138/htdocs/weather/20190804/ssi/nwsProduct.php on line 325

Warning: Undefined variable $rc in /homepages/6/d276339138/htdocs/weather/20190804/ssi/nwsProduct.php on line 323

Warning: Undefined variable $rc in /homepages/6/d276339138/htdocs/weather/20190804/ssi/nwsProduct.php on line 325

Regional Weather Roundup
for Boston, MA

        
000
ASUS41 KBOX 041710
RWRBOX

REGIONAL WEATHER ROUNDUP
NATIONAL WEATHER SERVICE BOSTON/NORTON MA
1200 PM EST SUN DEC 04 2022

NOTE:  "FAIR" INDICATES FEW OR NO CLOUDS BELOW 12,000 FEET WITH NO 
SIGNIFICANT WEATHER AND/OR OBSTRUCTIONS TO VISIBILITY.

MAZALL-041800-
EASTERN MASSACHUSETTS
  
CITY           SKY/WX    TMP DP  RH WIND       PRES   REMARKS
BOSTON         MOSUNNY   43  19  38 NW9       30.12F                  
BEVERLY        MOSUNNY   41  20  43 NW10      30.11F                  
LAWRENCE       SUNNY     41  19  41 NW10      30.13F                  
BEDFORD        SUNNY     40  19  43 NW10G20   30.12F                  
NORWOOD        MOSUNNY   45  19  35 NW9       30.11F                  
MARSHFIELD       N/A     43  19  39 NW8G17    30.11F                  
PLYMOUTH       SUNNY     43  22  43 N9        30.11F                  
TAUNTON          N/A    N/A N/A N/A MISG      30.11F                  
NEW BEDFORD    SUNNY     43  23  45 VRB5      30.11F                  
$$

MAZALL-041800-
CAPE COD AND THE ISLANDS
  
CITY           SKY/WX    TMP DP  RH WIND       PRES   REMARKS
FALMOUTH       SUNNY     41  19  42 NW16      30.11F                  
HYANNIS        SUNNY     42  22  44 NW13G21   30.09F                  
CHATHAM        SUNNY     44  24  45 VRB7      30.11F                  
PROVINCETOWN   SUNNY     42  24  49 NW14G20   30.12F                  
NANTUCKET      SUNNY     46  25  43 NW15G21   30.12F                  
MARTHAS VNYRD  SUNNY     45  23  42 N8        30.12F                  
$$
 
MAZALL-041800-
CENTRAL AND WESTERN MASSACHUSETTS
  
CITY           SKY/WX    TMP DP  RH WIND       PRES   REMARKS
WORCESTER      MOSUNNY   39  19  44 W12       30.09F WCI  32          
FITCHBURG      MOSUNNY   42  17  36 W10       30.12F                  
ORANGE         PTSUNNY   38  17  42 CALM      30.13S                  
SPRINGFIELD    PTSUNNY   39  19  43 NW9       30.12F                  
WESTFIELD      PTSUNNY   40  20  44 NW9       30.14F                  
NORTH ADAMS    CLOUDY    36  20  52 VRB7      30.14S WCI  30          
PITTSFIELD     CLOUDY    33  22  63 VRB7      30.10F WCI  27          
$$
 
RIZALL-041800-
RHODE ISLAND
  
CITY           SKY/WX    TMP DP  RH WIND       PRES   REMARKS
PROVIDENCE     PTSUNNY   42  22  44 NW12      30.13F                  
NEWPORT        SUNNY     41  23  48 N10       30.12F                  
BLOCK ISLAND   SUNNY     41  23  48 NW8       30.14F                  
SMITHFIELD     SUNNY     40  22  48 NW12G18   30.11F                  
WESTERLY       SUNNY     43  22  43 N13       30.13F                  
$$
 
CTZALL-041800-
CONNECTICUT
  
CITY           SKY/WX    TMP DP  RH WIND       PRES   REMARKS
BRADLEY INTL   PTSUNNY   41  19  41 N9        30.14F                  
HARTFORD       MOSUNNY   43  21  41 N10G21    30.15F                  
BRIDGEPORT     SUNNY     44  20  38 NW9       30.15F                  
DANBURY        MOSUNNY   43  18  36 NW8       30.15F                  
GROTON         SUNNY     45  23  42 W10G18    30.13F                  
NEW HAVEN      SUNNY     45  22  40 VRB7      30.14F                  
CHESTER        NOT AVBL                                               
MERIDEN        MOSUNNY   42  20  41 N12       30.14F                  
WILLIMANTIC    MOSUNNY   40  21  46 NW8       30.13F                  
OXFORD         MOSUNNY   39  22  50 N10       30.13F                  
$$

MEZ002-015-021-024-NHZ003-005-008-011-012-014-VTZ005-008-041800-
NORTHERN NEW ENGLAND
  
CITY           SKY/WX    TMP DP  RH WIND       PRES   REMARKS
PORTLAND ME    MOSUNNY   38  17  42 W12       30.10S WCI  30          
BANGOR ME      MOSUNNY   36  15  42 NW12      30.05F WCI  28          
CONCORD NH     MOSUNNY   38  18  44 NW8       30.11F                  
MANCHESTER NH  PTSUNNY   42  17  36 NW8       30.11S                  
NASHUA NH      SUNNY     40  16  37 NW13G18   30.13F                  
PORTSMOUTH NH  MOSUNNY   41  17  38 NW12      30.12S                  
JAFFREY NH     CLOUDY    38  16  40 NW7       30.09F                  
KEENE NH       PTSUNNY   38  17  42 VRB7        N/A                   
BURLINGTON VT  CLOUDY    33  14  45 W5        30.14F WCI  29          
MT. WASHINGTON SNOW       5   5 100 W40G47      N/A  VSB 1/16WCI -22  
$$

NYZ052-076-041800-
EASTERN NEW YORK
  
CITY           SKY/WX    TMP DP  RH WIND       PRES   REMARKS
ALBANY         PTSUNNY   37  24  59 W8        30.17F WCI  31          
NEW YORK CITY  MOSUNNY   43  19  38 NW10      30.17F                  
$$
 
ANZALL-041800-
MARINE OBSERVATIONS
  
STATION/POSITION TIME  TEMP    WIND        PRES    VSBY  WAVE
                       AIR SEA DIR/SP/G                  HT/PER
                 (UTC) (F)     (DEG/KT/KT) (MB)    (MI)  (FT/S)
BOSTON BUOY      1650          310/ 12/ 16 1020.5F         2/11
BUZZARDS BAY     1600   39     330/ 12/ 16 1021.1F
NANTUCKET SOUND  1650   42 49  340/ 10/ 16 1019.9F         1/ 3
MASS BAY-STELLWA 1504   40 50  310/ 14/ 17 1020.0F  1 7/8  2/ 3
ISLE OF SHOALS   1600   37     320/ 18/ 22 1019.4F
S OF BLOCK IS    1626      54                N/A           5/ 8
$$

......................KEY.........................
  SKY/WX - SKY CONDITION/PRESENT WEATHER
  TMP    - TEMPERATURE IN FAHRENHEIT
  DWPT   - DEWPOINT IN FAHRENHEIT
  RH     - RELATIVE HUMIDITY IN PERCENT
  WIND   - DIRECTION AND SPEED IN MPH
  PRES   - MEAN SEA LEVEL PRESSURE IN INCHES OF HG
  WCI    - WIND CHILL INDEX
  VSB    - VISIBILITY IN MILES
  HX     - HEAT INDEX
  TC     - TEMPERATURE IN CELSIUS
  VRB    - VARIABLE WIND DIRECTION
  N/A    - NOT AVAILABLE
  
      

Other recent Regional Weather Roundups

Thu Dec 8, 2:10pm

Thu Dec 8, 1:10pm

Thu Dec 8, 12:10pm

Thu Dec 8, 11:10am

Thu Dec 8, 10:10am

Thu Dec 8, 9:10am

Thu Dec 8, 8:10am

Thu Dec 8, 7:10am

Thu Dec 8, 6:10am

Thu Dec 8, 5:10am

Thu Dec 8, 4:10am

Thu Dec 8, 3:10am

Thu Dec 8, 2:10am

Thu Dec 8, 1:10am

Thu Dec 8, 12:10am

Wed Dec 7, 11:10pm

Wed Dec 7, 10:10pm

Wed Dec 7, 9:10pm

Wed Dec 7, 8:10pm

Wed Dec 7, 7:10pm

Wed Dec 7, 6:10pm

Wed Dec 7, 5:10pm

Wed Dec 7, 4:10pm

Wed Dec 7, 3:10pm

Wed Dec 7, 2:10pm

Wed Dec 7, 1:10pm

Wed Dec 7, 12:10pm

Wed Dec 7, 11:10am

Wed Dec 7, 10:10am

Wed Dec 7, 9:10am

Wed Dec 7, 8:10am

Wed Dec 7, 7:10am

Wed Dec 7, 6:10am

Wed Dec 7, 5:10am

Wed Dec 7, 4:10am

Wed Dec 7, 3:10am

Wed Dec 7, 2:10am

Wed Dec 7, 1:10am

Wed Dec 7, 12:10am

Tue Dec 6, 11:10pm

Tue Dec 6, 10:10pm

Tue Dec 6, 9:10pm

Tue Dec 6, 8:10pm

Tue Dec 6, 7:10pm

Tue Dec 6, 6:10pm

Tue Dec 6, 5:10pm

Tue Dec 6, 4:10pm

Tue Dec 6, 3:10pm

Tue Dec 6, 2:10pm

Tue Dec 6, 1:10pm

Tue Dec 6, 12:10pm

Tue Dec 6, 11:10am

Tue Dec 6, 10:10am

Tue Dec 6, 9:10am

Tue Dec 6, 8:10am

Tue Dec 6, 7:10am

Tue Dec 6, 6:10am

Tue Dec 6, 5:10am

Tue Dec 6, 4:10am

Tue Dec 6, 3:10am

Tue Dec 6, 2:10am

Tue Dec 6, 1:10am

Tue Dec 6, 12:10am

Mon Dec 5, 11:10pm

Mon Dec 5, 10:10pm

Mon Dec 5, 9:10pm

Mon Dec 5, 8:10pm

Mon Dec 5, 7:10pm

Mon Dec 5, 6:10pm

Mon Dec 5, 5:10pm

Mon Dec 5, 4:10pm

Mon Dec 5, 3:10pm

Mon Dec 5, 2:10pm

Mon Dec 5, 1:10pm

Mon Dec 5, 12:10pm

Mon Dec 5, 11:10am

Mon Dec 5, 10:10am

Mon Dec 5, 9:10am

Mon Dec 5, 8:10am

Mon Dec 5, 7:10am

Mon Dec 5, 6:10am

Mon Dec 5, 5:10am

Mon Dec 5, 4:10am

Mon Dec 5, 3:10am

Mon Dec 5, 2:10am

Mon Dec 5, 1:10am

Mon Dec 5, 12:10am

Sun Dec 4, 11:10pm

Sun Dec 4, 10:10pm

Sun Dec 4, 9:10pm

Sun Dec 4, 8:10pm

Sun Dec 4, 7:10pm

Sun Dec 4, 6:10pm

Sun Dec 4, 5:10pm

Sun Dec 4, 4:10pm

Sun Dec 4, 3:10pm

Sun Dec 4, 2:10pm

Sun Dec 4, 1:10pm

Sun Dec 4, 11:10am

Sun Dec 4, 10:10am

Sun Dec 4, 9:10am

Sun Dec 4, 8:10am

Sun Dec 4, 7:10am

Sun Dec 4, 6:10am

Sun Dec 4, 5:10am

Sun Dec 4, 4:10am

Sun Dec 4, 3:10am

Sun Dec 4, 2:10am

Sun Dec 4, 1:10am

Sun Dec 4, 12:10am

Sat Dec 3, 11:10pm

Sat Dec 3, 10:10pm

Sat Dec 3, 9:10pm

Sat Dec 3, 8:10pm

Sat Dec 3, 7:10pm

Sat Dec 3, 6:10pm

Sat Dec 3, 5:10pm

Sat Dec 3, 4:10pm

Sat Dec 3, 3:10pm

Sat Dec 3, 2:10pm

Sat Dec 3, 1:10pm

Sat Dec 3, 12:10pm

Sat Dec 3, 11:10am

Sat Dec 3, 10:10am

Sat Dec 3, 9:10am

Sat Dec 3, 8:10am

Sat Dec 3, 7:10am

Sat Dec 3, 6:10am

Sat Dec 3, 5:10am

Sat Dec 3, 4:10am

Sat Dec 3, 3:10am

Sat Dec 3, 2:10am

Sat Dec 3, 1:10am

Sat Dec 3, 12:10am

Fri Dec 2, 11:10pm

Fri Dec 2, 10:10pm

Fri Dec 2, 9:10pm

Fri Dec 2, 8:10pm

Fri Dec 2, 7:10pm

Fri Dec 2, 6:10pm

Fri Dec 2, 5:10pm

Fri Dec 2, 4:10pm

Fri Dec 2, 3:10pm

Fri Dec 2, 2:10pm

Fri Dec 2, 1:10pm

Fri Dec 2, 12:10pm

Fri Dec 2, 11:10am

Fri Dec 2, 10:10am

Fri Dec 2, 9:10am

Fri Dec 2, 8:10am

Fri Dec 2, 7:10am

Fri Dec 2, 6:10am

Fri Dec 2, 5:10am

Fri Dec 2, 4:10am

Fri Dec 2, 3:10am

Fri Dec 2, 2:10am

Fri Dec 2, 1:10am

Fri Dec 2, 12:10am

Thu Dec 1, 11:10pm

Thu Dec 1, 10:10pm

Thu Dec 1, 9:10pm

Thu Dec 1, 8:10pm

Thu Dec 1, 7:10pm

Thu Dec 1, 6:10pm

Thu Dec 1, 5:10pm

Thu Dec 1, 4:10pm

Thu Dec 1, 3:10pm

Meta data:

ID: d828e7cf-a520-486e-93ee-aed3bd02520e
Link: https://api.weather.gov/products/d828e7cf-a520-486e-93ee-aed3bd02520e